Notices

What's New in latest Release from April 7th, 2021:

- Updated Glossary, including Speed of Maximum Gust, and Total Hourly Precipitation

- Updated national and regional climate services offices contacts and prices information

- Addition of station inventory lists for 1981-2010, 1971-2000, and 1961-1990 Normals.

If you haven't already, please take our survey and provide feedback about our website: https://eccc.sondage-survey.ca/f/LanguageSelection.aspx?s=442ca660-fcf1-47c0-95a9-59707d6fd709

Hourly Data Report for March 08, 2004

SHERBROOKE A
QUEBEC

45°26'00.000" N
71°41'00.000" W
241.40 m
7028124
71610
YSC

Download Data

Hourly Data (March 2004)
Hourly Data Report for March 8, 2004
TIME
LST
Temp Definition
°C
Dew Point Definition
°C
Rel Hum Definition
%
Precip. Amount Definition
mm

Wind Dir Definition
10's deg

Wind Spd Definition
km/h
Visibility Definition
km
Stn Press Definition
kPa
Hmdx Definition


Wind Chill Definition


Weather Definition


00:00 -5.2 -12.6 56   6 11 15.0 98.11   -10  
01:00 -5.3 -12.5 57   8 9 15.0 98.12   -9  
02:00 -5.4 -12.8 56   5 13 15.0 98.01   -11  
03:00 -5.8 -13.0 57   6 11 15.0 97.88   -11  
04:00 -6.3 -13.3 58   5 13 15.0 97.86   -12  
05:00 -5.9 -13.1 57   6 13 15.0 97.90   -11  
06:00 -6.4 -13.0 59   4 17 15.0 97.96   -13  
07:00 -6.2 -12.8 59   6 13 15.0 98.05   -12  
08:00 -5.6 -12.5 58   4 15 24.1 98.15   -11 Cloudy
09:00 -4.2 -11.9 55   6 15 24.1 98.21   -10 Mostly Cloudy
10:00 -2.5 -11.1 52   4 7 24.1 98.21   -5 Mostly Cloudy
11:00 -0.3 -10.1 48   7 6 24.1 98.19   -2 Mostly Cloudy
12:00 0.5 -10.5 43   7 7 24.1 98.12     Mostly Cloudy
13:00 1.1 -10.5 42   9 11 24.1 98.04     Mostly Cloudy
14:00 1.2 -10.3 42   3 7 24.1 98.01     Mostly Cloudy
15:00 1.4 -11.2 39   5 9 24.1 98.00     Mostly Cloudy
16:00 0.9 -10.8 41   36 11 24.1 98.01     Mostly Cloudy
17:00 0.2 -10.7 44   3 13 24.1 98.09     Cloudy
18:00 -0.8 -11.3 45   3 7 15.0 98.20   -3  
19:00 -1.3 -11.8 45   3 13 15.0 98.28   -6  
20:00 -1.9 -11.7 47   4 13 15.0 98.34   -6  
21:00 -3.1 -11.5 52   4 13 15.0 98.38   -8  
22:00 -4.2 -11.9 55   3 19 15.0 98.39   -10  
23:00 -5.0 -12.4 56   4 17 15.0 98.40   -11  

Notes on Data Quality.

Legend

  • E = Estimated
  • M = Missing
  • NA = Not Available*
  • [empty] = Indicates an unobserved value
Date modified: